User: anonymous   Login
Location: Unspecified
(0.0000°N, 0.0000°E)
Time: 05:23:53
(UTC+00:00)
Language:

NNS O-31 - Orbit

View from above orbital plane
View from above orbital plane
View from above satellite
View from above satellite

Ground track
Ground track

The orbit data is extracted from the following two-line orbital elements,

1 19420U 88074B   17324.76144076 +.00000065 +00000-0 +97906-4 0  9991
2 19420 089.9888 018.7807 0094274 357.2245 123.3794 13.42189535431562
Epoch (UTC): 20 November 2017 18:16:28
Eccentricity: 0.0094274
inclination: 89.9888°
perigee height: 1030 km
apogee height: 1171 km
right ascension of ascending node: 18.7807°
argument of perigee: 357.2245°
revolutions per day: 13.42189535
mean anomaly at epoch: 123.3794°
orbit number at epoch: 43156

The dashed part of the orbit path shows where the satellite is in the earth's shadow,  

DLR